Flag for China Weather past 2 weeks in Guiyang, Guizhou, China

Now
70 °F

Passing clouds.


Feels Like: 70 °F
Forecast: 68 / 87 °F
Wind: 3 mph from South

Location: Guiyang Airport

Current Time: Jul 29, 2014 at 1:53:33 AM

Latest Report: Jul 29, 2014 at 1:00 AM


Visibility: N/A

Pressure: 29.86 "Hg

Humidity: 94%

Dew point: 68 °F

Location of GuiyangLocation

Historic Weather in Guiyang — Graph

°F

Guiyang temperature yesterday

Maximum temperature yesterday: 86 °F (at 3:00 PM)
Minimum temperature yesterday: 68 °F (at 5:00 AM)
Average temperature yesterday: 75 °F

Past Weeks' High & Low Weather Summary

 TemperatureHumidityPressure
High90 °F (Jul 22, 4:00 PM)100% (Jul 14, 5:00 AM)30.04 "Hg (Jul 14, 5:00 AM)
Low64 °F (Jul 27, 4:00 AM)46% (Jul 23, 4:00 PM)29.74 "Hg (Jul 23, 4:00 PM)
Average73 °F88%29.89 "Hg
* Reported Midnight between Jul 13 and Jul 14 — Midnight between Jul 28 and Jul 29, Guiyang, Weather by CustomWeather, © 2014

Note: Actual official high and low records may vary slightly from our data, if they occured in-between our weather recording intervals... More about our weather records

Advertising

Guiyang weather history for previous 24 hours

 ConditionsComfort  
Time TempWeatherWind HumidityBarometerVisibility
12:00 AM
Jul 29
68 °FPassing clouds.3 mph94%29.89 "HgN/A
11:00 PM
Jul 28
68 °FPassing clouds.6 mph94%29.89 "HgN/A
10:00 PM70 °FPassing clouds.3 mph94%29.86 "HgN/A
9:00 PM72 °FPassing clouds.1 mph88%29.86 "HgN/A
8:00 PM73 °FPassing clouds.3 mph83%29.83 "HgN/A
7:00 PM77 °FPassing clouds.6 mph79%29.80 "HgN/A
6:00 PM77 °FPartly sunny.8 mph79%29.80 "HgN/A
5:00 PM77 °FThunderstorms. Partly sunny.8 mph79%29.80 "HgN/A
4:00 PM86 °FPartly sunny.6 mph59%29.80 "HgN/A
3:00 PM86 °FPartly sunny.6 mph52%29.83 "HgN/A
2:00 PM84 °FPartly sunny.6 mph62%29.86 "HgN/A
1:00 PM84 °FPartly sunny.8 mph58%29.89 "HgN/A
12:00 PM82 °FPartly sunny.6 mph66%29.89 "HgN/A
11:00 AM81 °FPartly sunny.6 mph70%29.92 "HgN/A
10:00 AM81 °FPartly sunny.10 mph70%29.92 "HgN/A
9:00 AM75 °FScattered clouds.8 mph78%29.92 "HgN/A
8:00 AM73 °FPassing clouds.3 mph89%29.92 "HgN/A
7:00 AM68 °FScattered clouds.3 mph100%29.92 "HgN/A
6:00 AM68 °FPassing clouds.3 mph100%29.89 "HgN/A
5:00 AM68 °FPassing clouds.1 mph100%29.89 "HgN/A
4:00 AM70 °FPassing clouds.1 mph94%29.92 "HgN/A
3:00 AM70 °FPassing clouds.1 mph100%29.92 "HgN/A
2:00 AM70 °FPassing clouds.No wind94%29.95 "HgN/A
1:00 AM70 °FPassing clouds.1 mph94%29.95 "HgN/A
Weather by CustomWeather, © 2014

See weather overviewHow to use our weather pages